• Join FlightAware (Why Join?)
  • Login
  • US Flag 
10:27PM EDT


 

Airport Tracker/Info


-or-


 

Live Flight TrackerFlight Track Log ✈ ASQ5941 ✈ 02-Jul-2013 ✈ KORD - KAVP

Flight Track Log - Related Links

Times and Time Zones

All times are in EDT time to prevent confusion due to time zone crossing. See the ASQ5941 flight status page for this flight to view local times or setup timezone preferences in your user account.

Time Position Orientation Groundspeed Altitude Reporting Facility
EDT Latitude Longitude Course Direction KTS MPH feet Rate Location/Type
02:50PM 42.0000 -87.8833 90° East 160 184 1,800  Level Chicago TRACON
02:51PM 42.0167 -87.8167 71° East 204 235 3,700 1,680 Climbing Chicago TRACON
02:52PM 42.0333 -87.7333 75° East 239 275 5,200 1,680 Climbing Chicago TRACON
02:53PM 42.0572 -87.3204 78° East  Level FlightAware Approximate
02:53PM 42.0500 -87.6333 77° East 263 303 7,100  Level Chicago TRACON
02:54PM 42.0798 -87.1734 78° East  Level FlightAware Approximate
02:54PM 42.0572 -87.5264 85° East 272 313 9,000  Level Chicago Center
02:55PM 42.1000 -87.0261 90° East  Level FlightAware Approximate
02:55PM 42.0697 -87.4208 81° East 285 328 11,000  Level Chicago Center
02:56PM 42.0861 -87.2900 80° East 294 338 13,000 1,800 Climbing Chicago Center
02:57PM 42.0989 -87.1725 82° East 313 360 14,800 1,620 Climbing Chicago Center
02:58PM 42.1128 -87.0581 81° East 312 359 16,400 1,440 Climbing Chicago Center
02:59PM 42.1167 -86.9372 87° East 321 369 17,800 1,440 Climbing Chicago Center
03:00PM 42.1214 -86.8147 87° East 327 376 19,400 1,260 Climbing Chicago Center
03:01PM 42.1250 -86.6794 88° East 336 387 20,500 900 Climbing Chicago Center
03:02PM 42.1306 -86.5425 87° East 361 415 21,300 660 Climbing Chicago Center
03:03PM 42.1350 -86.4000 88° East 378 435 21,900 300 Climbing Chicago Center
03:04PM 42.1406 -86.2192 88° East 398 458 22,000 480 Climbing Chicago Center
03:05PM 42.1442 -86.0683 88° East 403 464 22,900 840 Climbing Chicago Center
03:06PM 42.1422 -85.9306 91° East 401 461 23,800 960 Climbing Chicago Center
03:07PM 42.1408 -85.7792 91° East 406 467 24,900 1,020 Climbing Chicago Center
03:09PM 42.1400 -85.5983 90° East 405 466 26,000 840 Climbing Chicago Center
03:10PM 42.1378 -85.4431 91° East 413 475 26,700 660 Climbing Chicago Center
03:11PM 42.1367 -85.2883 91° East 415 478 27,400 660 Climbing Chicago Center
03:12PM 42.1350 -85.1303 91° East 421 484 28,100 660 Climbing Chicago Center
03:13PM 42.1319 -84.9756 91° East 419 482 28,800 720 Climbing Chicago Center
03:14PM 42.1289 -84.7869 91° East 420 483 29,600 720 Climbing Chicago Center
03:15PM 42.1261 -84.6294 91° East 422 486 30,300 660 Climbing Chicago Center
03:16PM 42.1236 -84.4694 91° East 428 493 31,000 660 Climbing Chicago Center
03:17PM 42.1414 -84.3058 82° East 439 505 31,700 660 Climbing Chicago Center
03:18PM 42.1594 -84.1297 82° East 437 503 32,400 600 Climbing Cleveland Center
03:19PM 42.1772 -83.9597 82° East 442 509 33,000 300 Climbing Cleveland Center
03:20PM 42.1967 -83.7897 81° East 453 521 33,100 420 Climbing Cleveland Center
03:21PM 42.2117 -83.6139 83° East 459 528 33,900 780 Climbing Cleveland Center
03:22PM 42.2103 -83.4231 90° East 463 533 34,700 540 Climbing Cleveland Center
03:23PM 42.2019 -83.2489 94° East 463 533 35,000 120 Climbing Cleveland Center
03:24PM 42.1956 -83.0692 93° East 469 540 35,000  Level Cleveland Center
03:25PM 42.1869 -82.8922 94° East 474 545 35,000  Level Cleveland Center
03:26PM 42.1797 -82.7156 93° East 474 545 35,000  Level Cleveland Center
03:27PM 42.1725 -82.5358 93° East 474 545 35,000  Level Cleveland Center
03:28PM 42.1650 -82.3619 93° East 474 545 35,000  Level Cleveland Center
03:29PM 42.1550 -82.1853 94° East 474 545 35,000  Level Cleveland Center
03:30PM 42.1489 -82.0228 93° East 474 545 35,000  Level Cleveland Center
03:31PM 42.1406 -81.8433 94° East 485 558 35,000  Level Cleveland Center
03:32PM 42.1322 -81.6472 93° East 480 552 35,000  Level Cleveland Center
03:33PM 42.1211 -81.4678 95° East 480 552 35,000  Level Cleveland Center
03:34PM 42.1119 -81.2858 94° East 480 552 35,000  Level Cleveland Center
03:35PM 42.1006 -81.1064 95° East 480 552 35,000  Level Cleveland Center
03:36PM 42.0886 -80.9189 95° East 485 558 35,000 -60 Level Cleveland Center
03:37PM 42.0786 -80.7369 94° East 485 558 34,900 -540 Descending Cleveland Center
03:38PM 42.0683 -80.5581 94° East 485 558 34,000 -900 Descending Cleveland Center
03:39PM 42.0578 -80.3958 95° East 485 558 33,200 -540 Descending Cleveland Center
03:40PM 42.0447 -80.2169 96° East 480 552 33,000 -120 Descending Cleveland Center
03:41PM 42.0336 -80.0381 95° East 480 552 33,000  Level Cleveland Center
03:42PM 42.0222 -79.8619 95° East 480 552 33,000 -60 Level Cleveland Center
03:43PM 42.0086 -79.6806 96° East 480 552 32,900  Descending Cleveland Center
03:44PM 42.0361 -79.4956 79° East 486 559 33,000  Climbing Cleveland Center
03:45PM 42.0697 -79.3078 76° East 496 571 33,000  Level Cleveland Center
03:46PM 42.0989 -79.1253 78° East 501 577 33,000 -60 Level Cleveland Center
03:47PM 42.1297 -78.9397 77° East 501 577 32,900  Descending Cleveland Center
03:48PM 42.1603 -78.7569 77° East 501 577 33,000  Climbing Cleveland Center
03:49PM 42.1928 -78.5794 76° East 495 570 33,000  Level Cleveland Center
03:50PM 42.2206 -78.3989 78° East 489 563 33,000 -600 Level Cleveland Center
03:51PM 42.2294 -78.2164 86° East 483 556 31,900 -1,560 Descending Cleveland Center
03:52PM 42.2092 -78.0433 99° East 469 540 29,900 -2,040 Descending Cleveland Center
03:54PM 42.0711 -77.6633 116° Southeast 461 531 25,200 -2,040 Descending New York Center
03:55PM 42.0178 -77.5069 115° Southeast 466 536 23,200 -1,980 Descending New York Center
03:56PM 41.9658 -77.3567 115° Southeast 460 529 21,200 -1,920 Descending New York Center
03:57PM 41.9175 -77.2097 114° Southeast 448 516 19,300 -1,140 Descending New York Center
03:58PM 41.8672 -77.0628 115° Southeast 437 503 19,000 -540 Descending New York Center
03:59PM 41.8247 -76.9194 112° Southeast 432 497 18,300 -1,800 Descending New York Center
04:00PM 41.8239 -76.7692 90° East 409 471 15,400 -3,060 Descending New York Center
04:01PM 41.8722 -76.6369 64° Northeast 382 440 12,200 -2,460 Descending New York Center
04:02PM 41.8678 -76.5139 93° East 375 432 10,600 -1,380 Descending New York Center
04:03PM 41.8481 -76.4036 103° East 326 375 9,500 -840 Descending New York Center
04:04PM 41.8258 -76.2989 106° East 304 350 9,000 -300 Descending New York Center
04:05PM 41.8125 -76.1864 99° East 282 325 9,000  Level New York Center
04:06PM 41.7942 -76.0819 103° East 282 325 9,000  Level New York Center
04:07PM 41.7844 -75.9756 97° East 289 333 9,000  Level New York Center
04:08PM 41.7758 -75.8803 97° East 289 333 9,000  Level New York Center
04:09PM 41.7625 -75.7569 98° East 295 339 9,000  Level New York Center
04:10PM 41.7392 -75.6689 110° East 290 334 9,000 -60 Level New York Center
04:11PM 41.6967 -75.5825 123° Southeast 282 325 8,900 -1,020 Descending New York Center
04:12PM 41.6225 -75.5689 172° South 236 272 7,000 -1,920 Descending New York Center
04:13PM 41.5583 -75.5558 171° South 230 265 5,100 -1,500 Descending New York Center
04:14PM 41.5033 -75.5769 196° South 212 244 4,100 -1,080 Descending New York Center